Weather in Poddorye

Russia / Novgorod Oblast     57°28′15″N   31°06′54″E
В апреле 2022 года жителям России запретили посещать сайт meteo.paraplan.net по решению Генеральной прокуратуры. Аудитория сайта уменьшилась в 10 раз. Владельцы сайта не видят смысла в поддержке погодного сервера в таких условиях. Сайт будет закрыт в октябре.
temp.,
°C
wind,
m/s
gust,
m/s
humid.,
%
clouds,
%
prec.,
mm/h
press.,
hPa
HPBL,
m
25 september, sun
sun2500:00+7nnw61382100 0.3 10071008
03:00+7nnw51191100 0.9 1006895
06:00+7nw51295100 1.9 1006741
09:00+7nw51295100 4.2 1006685
12:00+7nw41096100 2.0 1006605
15:00+7nw4997100 4.1 1007493
18:00+7nw3897100 2.9 1007495
21:00+7nw2698100 4.4 1008449
26 september, mon
mon2600:00+7wnw2598100 0.3 1008356
03:00+6wnw2498100 0.4 1008265
06:00+6w1498100 0.1 1008218
09:00+7wsw1296100 0.1 1009137
12:00+7wsw1393100 0.0 1010284
15:00+8wsw129094 0.0 1010233
18:00+8e119070 0.1 101013
21:00+7e119358 0.1 101013
27 september, tue
tue2700:00+5se119415 0.0 101110
03:00+5e1194100 0.0 101010
06:00+5e1195100 0.0 101015
09:00+7ese1290100 0.0 1010103
12:00+7e2497100 1.8 1011191
15:00+9ene3593100 2.6 1011253
18:00+9ene3794100 0.1 1011199
21:00+7e3109690 0.2 1011246
28 september, wed
wed2800:00+8e4119414 0.4 1010402
03:00+7e41292100 0.4 1009441
06:00+7e51490100 0.0 1009570
09:00+8e51585100 0.0 1008756
12:00+10e61480100 0.4 1006997
15:00+9e61584100 1.9 10051069
18:00+9e71691100 2.8 10051024
21:00+8e61493100 6.9 10061009
29 september, thu
thu2900:00+7e51394100 2.5 1006792
03:00+7ese41194100 3.7 1006723
06:00+7ese41095100 0.9 1007559
09:00+7ese3896100 2.3 1008428
12:00+9se369492 0.1 1010375
15:00+11se248559 0.1 1011472
18:00+10ese389046 0.0 1012257
21:00+8se4119785 0.0 1014299